User: anonymous   Login
Location: Unspecified
(0.0000°N, 0.0000°E)
Time: 20:00:23
(UTC+00:00)
Language:

GONETS M 08 (M18) - Orbit

View from above orbital plane
View from above orbital plane
View from above satellite
View from above satellite

Ground track
Ground track

The orbit data is extracted from the following two-line orbital elements,

1 40061U 14036A   18172.19170300 -.00000008  00000-0 -12772-3 0  9997
2 40061  82.5087 319.9125 0029395  36.4587 323.8483 12.42879202179964
Epoch (UTC): 21 June 2018 04:36:03
Eccentricity: 0.0029395
inclination: 82.5087°
perigee height: 1471 km
apogee height: 1517 km
right ascension of ascending node: 319.9125°
argument of perigee: 36.4587°
revolutions per day: 12.42879202
mean anomaly at epoch: 323.8483°
orbit number at epoch: 17996

The dashed part of the orbit path shows where the satellite is in the earth's shadow,  

DLR